Regional Weather Roundup
Issued by NWS

Home | Current Version | Previous Version | Text Only | Print | Product List | Glossary Off
Versions: 1 2 3 4 5 6 7 8 9 10 11 12 13 14 15 16 17 18 19 20 21 22 23 24 25 26 27 28 29 30 31 32 33 34 35 36 37 38 39 40 41 42 43 44 45 46 47 48 49 50

081
ASUS44 KMEG 220110
RWRTN
TENNESSEE HOURLY STATE WEATHER ROUNDUP
NATIONAL WEATHER SERVICE MEMPHIS TN
800 PM CDT THU MAY 21 2015

TNZ002-004-019-021-049-052-054-088>092-220200-
WEST TENNESSEE

CITY           SKY/WX    TMP DP  RH WIND       PRES   REMARKS
MEMPHIS INTL   MOCLDY    56  45  66 NE8       30.21R
NWS MEMPHIS      N/A     54 N/A N/A MISG        N/A
JACKSON        PTCLDY    54  46  74 N6        30.20R
DYERSBURG      CLEAR     55  37  50 CALM      30.22R
PARIS          MOCLDY    54  45  71 N5        30.19R
LEXINGTON      CLEAR     54  46  76 CALM      30.18R
$$

TNZ008-025-027-028-033-062-065-066-220200-
NORTH MIDDLE TENNESSEE

CITY           SKY/WX    TMP DP  RH WIND       PRES   REMARKS
NASHVILLE      CLOUDY    56  45  66 N7        30.17R
CLARKSVILLE    CLOUDY    55  46  71 N6        30.19R
SMYRNA         CLOUDY    56  45  66 N13       30.18R
COOKEVILLE     CLOUDY    54  48  82 N3        30.15R
CROSSVILLE     CLOUDY    50  45  83 NW8       30.14R
$$

TNZ061-075-076-078-094-096-097-220200-
SOUTH MIDDLE TENNESSEE

CITY           SKY/WX    TMP DP  RH WIND       PRES   REMARKS
FAYETTEVILLE   CLOUDY   N/A N/A N/A MISG      30.16R
TULLAHOMA      MOCLDY    52  46  82 N5        30.16S
WINCHESTER     CLOUDY    54  46  76 N3        30.16S
MCMINNVILLE    CLOUDY    54  48  82 NW5       30.16R
COLUMBIA       CLOUDY    55  48  76 CALM      30.16S
SHELBYVILLE    CLOUDY    55  50  82 NW5       30.17R
$$

TNZ017-018-042-046-047-220200-
NORTHEAST TENNESSEE

CITY           SKY/WX    TMP DP  RH WIND       PRES   REMARKS
TRI CITIES     CLOUDY    58  48  69 NW10      30.06R
ELIZABETHTON   CLOUDY    55  46  71 VRB7      30.05R
$$

TNZ012-013-036-069-073-074-220200-
CENTRAL EAST TENNESSEE

CITY           SKY/WX    TMP DP  RH WIND       PRES   REMARKS
KNOXVILLE      CLOUDY    57  47  69 N9        30.09R
OAK RIDGE      CLOUDY    57  47  69 VRB5      30.12R
GATLINBURG     CLOUDY    55  46  71 NW8       30.09R
MORRISTOWN     CLOUDY    55  48  76 NW10      30.11R
$$

TNZ083-085-099-220200-
SOUTHEAST TENNESSEE

CITY           SKY/WX    TMP DP  RH WIND       PRES   REMARKS
CHATTANOOGA    CLOUDY    58  47  66 N10       30.13R
$$

SKY/WX REPORTED AS FAIR MEANS FEW OR NO CLOUDS BELOW
12 THOUSAND FEET.




USA.gov is the U.S. government's official web portal to all federal, state and local government web resources and services.